Volver al catálogo

FENGYUN 1C DEB

ActivoSSO
NORAD 37404·DEBRIS·🇨🇳 China

Lanzado May 10, 1999 desde Taiyuan Satellite Launch Center

Loading…

Próximos Pases (próximas 24 horas)

TLE

ActualizadoSource: Space-Track

Época: Sep 13, 2026, 22:59 UTC

1 37404U 99025EFW 26256.95818308  .00000840  00000-0  32203-3 0  9991
2 37404  98.4590 257.9127 0045001  69.0891 322.2973 14.32528581866806

Sigue FENGYUN 1C DEB en tiempo real con AllMySat

Download on the App Store